Weather History for KTEB - June, 2014

Change the Weather History Date:

Wednesday, June 4, 2014

  Actual Average Record
Temperature  
Mean Temperature 77 °F -  
Max Temperature 89 °F 75 °F 89 °F (2014)
Min Temperature 66 °F 54 °F 48 °F (1998)
Cooling Degree Days 12    
Growing Degree Days 27 (Base 50)    
Moisture  
Dew Point 54 °F    
Average Humidity 55    
Maximum Humidity 87    
Minimum Humidity 24    
Precipitation  
Precipitation 0.00 in - - ()
Sea Level Pressure  
Sea Level Pressure 29.79 in    
Wind  
Wind Speed 5 mph (ENE)    
Max Wind Speed 13 mph    
Max Gust Speed 18 mph    
Visibility 8 miles    
Events Fog    
Averages and records for this station are not official NWS values.
T = Trace of Precipitation, MM = Missing Value Source: NWS Daily Summary

Daily Weather History Graph

Daily Weather History Graph

Search for Another Location

Airport or City:

Trip Planner

Search our weather history database for the weather conditions in past years. The results will help you decide how hot, cold, wet, or windy it might be!

Date:

Astronomy

Jun. 04, 2014 Rise Set
Actual Time 5:25 AM EDT 8:23 PM EDT
Civil Twilight 4:52 AM EDT 8:56 PM EDT
Nautical Twilight 4:10 AM EDT 9:38 PM EDT
Astronomical Twilight 3:22 AM EDT 10:27 PM EDT
Moon 11:44 AM EDT (6/4) 12:19 AM EDT (6/4)
Length of Visible Light 16h 04m
Length of Day
14h 58m
Waxing Crescent, 39% of the Moon is Illuminated
Jun 4
Waxing Crescent
Jun 5
First Quarter
Jun 13
Full
Jun 19
Last Quarter
Jun 27
New

Hourly Weather History & Observations

Time (EDT) Temp. Heat Index Dew Point Humidity Pressure Visibility Wind Dir Wind Speed Gust Speed Precip Events Conditions
12:41 AM 69.8 °F - 64.4 °F 83% 29.82 in 8.0 mi NE 3.5 mph - N/A Fog Shallow Fog
12:51 AM 69.1 °F - 63.0 °F 81% 29.81 in 8.0 mi ENE 3.5 mph - N/A Fog Shallow Fog
1:22 AM 68.0 °F - 62.6 °F 83% 29.83 in 8.0 mi NNE 12.7 mph 18.4 mph N/A Fog Shallow Fog
1:51 AM 68.0 °F - 63.0 °F 84% 29.80 in 8.0 mi ESE 9.2 mph - N/A Fog Shallow Fog
2:09 AM 68.0 °F - 62.6 °F 83% 29.79 in 7.0 mi Calm Calm - N/A Fog Shallow Fog
2:51 AM 66.9 °F - 63.0 °F 87% 29.79 in 6.0 mi NNW 3.5 mph - N/A   Clear
3:51 AM 66.0 °F - 62.1 °F 87% 29.79 in 5.0 mi NW 4.6 mph - N/A   Clear
4:51 AM 66.2 °F - 60.8 °F 83% 29.81 in 5.0 mi NNE 3.5 mph - N/A   Haze
5:22 AM 66.2 °F - 28.4 °F 24% 29.81 in 3.0 mi ENE 4.6 mph - N/A   Haze
5:51 AM 66.0 °F - 30.0 °F 26% 29.82 in 3.0 mi NE 3.5 mph - N/A   Haze
6:14 AM 66.2 °F - 30.2 °F 26% 29.82 in 4.0 mi ENE 3.5 mph - N/A Fog Shallow Fog
6:51 AM 66.9 °F - 32.0 °F 27% 29.83 in 4.0 mi NE 3.5 mph - N/A Fog Shallow Fog
7:51 AM 68.0 °F - 34.0 °F 28% 29.84 in 4.0 mi NE 6.9 mph - N/A   Haze
8:51 AM 70.0 °F - 34.0 °F 27% 29.85 in 5.0 mi Variable 4.6 mph - N/A   Haze
9:20 AM 71.6 °F - 33.8 °F 25% 29.85 in 8.0 mi Variable 4.6 mph - N/A   Scattered Clouds
9:51 AM 73.0 °F - 35.1 °F 25% 29.84 in 10.0 mi NNW 6.9 mph - N/A   Scattered Clouds
10:51 AM 75.9 °F - 62.1 °F 62% 29.83 in 10.0 mi NE 8.1 mph - N/A   Partly Cloudy
11:51 AM 78.1 °F - 62.1 °F 58% 29.82 in 10.0 mi Calm Calm - N/A   Scattered Clouds
12:51 PM 80.1 °F 81.2 °F 62.1 °F 54% 29.80 in 10.0 mi Variable 3.5 mph - N/A   Partly Cloudy
1:51 PM 81.0 °F 81.7 °F 61.0 °F 50% 29.77 in 10.0 mi SSW 5.8 mph - N/A   Scattered Clouds
2:51 PM 82.9 °F 83.2 °F 60.1 °F 46% 29.75 in 10.0 mi SE 4.6 mph - N/A   Mostly Cloudy
3:51 PM 82.9 °F 83.2 °F 60.1 °F 46% 29.73 in 10.0 mi West 5.8 mph - N/A   Partly Cloudy
4:51 PM 88.0 °F 87.6 °F 60.1 °F 39% 29.73 in 10.0 mi SSW 9.2 mph - N/A   Scattered Clouds
5:51 PM 80.6 °F 81.5 °F 60.8 °F 51% 29.72 in 10.0 mi South 11.5 mph - N/A   Partly Cloudy
6:51 PM 82.0 °F 82.7 °F 61.0 °F 49% 29.73 in 10.0 mi South 8.1 mph - N/A   Scattered Clouds
7:51 PM 78.1 °F - 60.1 °F 54% 29.74 in 10.0 mi Variable 3.5 mph - N/A   Overcast
8:51 PM 77.0 °F - 61.0 °F 58% 29.74 in 10.0 mi East 4.6 mph - N/A   Clear
9:51 PM 75.0 °F - 61.0 °F 62% 29.77 in 10.0 mi Calm Calm - N/A   Scattered Clouds
10:51 PM 73.0 °F - 62.1 °F 68% 29.77 in 10.0 mi South 4.6 mph - 0.00 in   Overcast
11:51 PM 73.9 °F - 62.1 °F 66% 29.75 in 10.0 mi East 5.8 mph - N/A   Overcast